Find Iridium Next SV167

NORAD ID: 43931 Int'l Des: 2019-002 Owner: IRIDS Country: US Constellation: Iridium NEXT operational
LEOCIRCULARPOLAR

当前视图

正在加载3D地球...

About Iridium Next SV167

Iridium Next SV167 (NORAD 43931) is a Iridium NEXT constellation satellite launched Jan 11, 2019 by IRIDS of US. It operates in LEO, CIRCULAR, POLAR orbit with a mass of 860.00 kg.

关于 Iridium Next SV167

正在加载描述...

即将过境

Passes for default location (London). Set your location on the main map for personalized predictions.

高度历史

Loading altitude history...

两行轨道根数

1 43931U 19002K 26194.80656191 .00000044 00000-0 86784-5 0 9996
2 43931 86.3990 342.4657 0002270 98.9559 261.1894 14.34217697392777
Epoch: Jul 13, 2026 • Age: 10 hours

当前状态

高度 789.8 km
远地点 / 近地点 N/A
速度 7.47 km/s
星下点 84.25°N, 1.62°E
发射日期 Jan 11, 2019
运行时间 7.5 years
类型 communications

技术详情

分类 Payload
质量 860.00 kg
干质量 700.00 kg
总质量 860.00 kg
长度 3.10 m
直径 1.50 m
跨度 9.40 m
形状 Half Hex Prism+2 pan
制造商 NGISGA
平台类型 EliteBus
阶段状态 In Orbit
所有者/国家 IRIDS/US

Most Searched